Location: North Evanston
(42.0634°N, 87.6976°W)
Time: 14:19:16
(UTC+00:00)

Vanguard 2 - Pass Details

Date: 17 May 2026
Orbit: 553 x 2894 km, 32.9° (Epoch: 8 June)

Event Time Altitude Azimuth Distance (km) Brightness Sun altitude
Rises 06:24:56 0° 226° (SW) 6,050 - -28.0°
Reaches altitude 10° 06:28:53 10° 220° (SW) 5,270 - -27.8°
Exits shadow 06:38:59 38° 189° (S) 3,789 10.4 -27.4°
Maximum altitude 06:44:03 45° 155° (SSE) 3,572 10.5 -27.2°
Drops below altitude 10° 06:59:29 10° 90° (E) 5,381 12.0 -26.4°
Sets 07:03:31 0° 85° (E) 6,184 12.5 -26.1°
